Powrót do katalogu

STARLINK-5086

AktywnyŁącznośćVLEO
NORAD 54856·PAYLOAD·🇺🇸 United States

Wystrzelony Dec 28, 2022 z Cape Canaveral Space Force Station

Loading…

Następne Przeloty (najbliższe 24 godziny)

TLE

ŚwieżeSource: CelesTrak SupGP

Epoka: Sep 15, 2026, 01:23 UTC

1 54856C 22177AN  26258.05812500  .00048176  00000+0  17456-2 0  2589
2 54856  43.0003 132.2831 0001336 274.1857 322.6670 15.27542325    10

Śledź STARLINK-5086 w czasie rzeczywistym z AllMySat

Download on the App Store